User: anonymous   Login
Location: Cluny
(50.9333°N, 112.8167°W)
Time: 11:49:07
(UTC-06:00)
Language:

Cosmos 1743 Rocket - Orbit

View from above orbital plane
View from above orbital plane
View from above satellite
View from above satellite

Ground track
Ground track

The orbit data is extracted from the following two-line orbital elements,

1 16720U 86034B   16210.52132610  .00000095  00000-0  85966-5 0  9990
2 16720  82.5540 183.2414 0021876  89.3624  49.9576 14.83238363631282
Epoch (UTC): 28 July 2016 12:30:42
Eccentricity: 0.0021876
inclination: 82.5540°
perigee height: 604 km
apogee height: 634 km
right ascension of ascending node: 183.2414°
argument of perigee: 89.3624°
revolutions per day: 14.83238363
mean anomaly at epoch: 49.9576°
orbit number at epoch: 63128

The dashed part of the orbit path shows where the satellite is in the earth's shadow,  

DLR